Location: Alafon
(8.4500°N, 4.2333°E)
Time: 07:57:59
(UTC+00:00)

Vanguard 1 - All Passes

Search period start: 31 July 2021 00:00
Search period end: 10 August 2021 00:00
Orbit: 651 x 3831 km, 34.2° (Epoch: 30 July)

Date Brightness Start Highest point End Pass type
(mag) Time Alt. Az. Time Alt. Az. Time Alt. Az.
31 Jul - 05:46:48 10° SSW 05:52:25 27° SSE 05:56:30 10° E daylight
31 Jul - 08:08:28 10° W 08:12:40 31° NNW 08:16:40 10° NNE daylight
31 Jul - 12:56:30 10° N 12:59:47 12° NNE 13:03:44 10° NE daylight
31 Jul - 15:13:36 10° NW 15:23:58 43° NE 15:41:40 10° E daylight
31 Jul - 17:33:45 10° WNW 17:48:47 80° SW 18:12:19 10° SE daylight
31 Jul - 19:59:16 10° W 20:16:37 35° SW 20:36:34 10° SSE visible
31 Jul - 22:42:27 10° SW 22:48:09 11° SSW 22:53:35 10° S visible
01 Aug - 06:07:15 10° SW 06:13:35 46° SSE 06:18:01 10° ENE daylight
01 Aug - 08:30:39 10° WNW 08:33:44 17° NNW 08:36:48 10° NNE daylight
01 Aug - 13:16:30 10° N 13:21:36 16° NNE 13:28:30 10° ENE daylight
01 Aug - 15:34:13 10° NW 15:45:15 55° NE 16:04:41 10° ESE daylight
01 Aug - 17:55:04 10° WNW 18:10:25 65° SW 18:33:38 10° SE visible
01 Aug - 20:22:46 10° W 20:39:02 27° SSW 20:56:52 10° SSE visible
02 Aug - 04:07:48 10° S 04:12:43 15° SSE 04:16:31 10° ESE visible
02 Aug - 06:28:11 10° SW 06:34:36 84° SE 06:39:06 10° ENE daylight
02 Aug - 08:54:28 10° NNW 08:55:00 10° NNW 08:55:32 10° NNW daylight
02 Aug - 13:36:41 10° NNW 13:43:12 22° NNE 13:52:54 10° ENE daylight
02 Aug - 15:54:55 10° NW 16:06:28 69° NE 16:27:12 10° ESE daylight
02 Aug - 18:16:42 10° WNW 18:32:13 52° SW 18:54:40 10° SE visible
02 Aug - 20:47:21 10° WSW 21:01:48 21° SSW 21:16:59 10° SSE visible
03 Aug - 04:27:27 10° SSW 04:34:23 24° SSE 04:39:08 10° E visible
03 Aug - 06:49:33 10° WSW 06:55:28 53° NW 06:59:51 10° NE daylight
03 Aug - 13:56:59 10° NNW 14:04:34 29° NE 14:16:52 10° E daylight
03 Aug - 16:15:46 10° NW 16:27:46 86° NE 16:49:15 10° SE daylight
03 Aug - 18:38:46 10° W 18:54:14 41° SSW 19:15:27 10° SSE visible
03 Aug - 21:13:25 10° SW 21:25:03 16° SSW 21:36:46 10° S visible
04 Aug - 02:29:27 10° S 02:31:31 11° SSE 02:33:24 10° SSE visible
04 Aug - 04:47:47 10° SW 04:55:52 36° SSE 05:00:56 10° E visible
04 Aug - 07:11:23 10° W 07:16:19 29° NW 07:20:16 10° NNE daylight
04 Aug - 14:17:23 10° NNW 14:25:45 39° NE 14:40:19 10° E daylight
04 Aug - 16:36:48 10° WNW 16:49:10 77° SW 17:10:55 10° SE daylight
04 Aug - 19:01:23 10° W 19:16:29 33° SSW 19:36:02 10° SSE visible
04 Aug - 21:41:38 10° SW 21:48:49 12° SSW 21:55:51 10° S visible
05 Aug - 02:47:15 10° SSW 02:53:47 16° SSE 02:58:41 10° SE visible
05 Aug - 05:08:34 10° SW 05:17:07 58° SSE 05:22:14 10° ENE visible
05 Aug - 07:33:51 10° WNW 07:37:15 17° NNW 07:40:16 10° N daylight
05 Aug - 12:21:48 10° N 12:24:27 12° NNE 12:27:35 10° NE daylight
05 Aug - 14:37:53 10° NW 14:46:49 52° NE 15:03:15 10° ESE daylight
05 Aug - 16:58:04 10° WNW 17:10:46 61° SW 17:32:15 10° SE daylight
05 Aug - 19:24:46 10° WSW 19:39:04 25° SSW 19:56:28 10° SSE visible
06 Aug - 03:06:57 10° SSW 03:15:46 22° SSE 03:21:38 10° ESE visible
06 Aug - 05:29:46 10° SW 05:38:08 87° NW 05:43:11 10° NE daylight
06 Aug - 12:41:11 10° N 12:45:54 17° NNE 12:52:20 10° ENE daylight
06 Aug - 14:58:31 10° NW 15:07:53 69° NE 15:25:42 10° ESE daylight
06 Aug - 17:19:40 10° WNW 17:32:34 48° SSW 17:53:18 10° SE daylight
06 Aug - 19:49:12 10° WSW 20:02:02 19° SSW 20:16:43 10° SSE visible
07 Aug - 01:06:49 10° S 01:11:17 11° SSE 01:15:10 10° SSE visible
07 Aug - 03:27:14 10° SSW 03:37:31 32° SSE 03:43:45 10° E visible
07 Aug - 05:51:23 10° WSW 05:59:01 52° NW 06:03:51 10° NE daylight
07 Aug - 13:01:11 10° NNW 13:07:07 25° NE 13:16:13 10° E daylight
07 Aug - 15:19:18 10° NW 15:29:03 89° NE 15:47:42 10° SE daylight
07 Aug - 17:41:41 10° W 17:54:36 38° SSW 18:14:08 10° SSE daylight
07 Aug - 20:15:00 10° SW 20:25:28 15° SSW 20:36:46 10° S visible
08 Aug - 01:25:31 10° SSW 01:33:59 16° SSE 01:40:21 10° SE visible
08 Aug - 03:47:56 10° SW 03:59:02 47° SSE 04:05:18 10° ENE visible
08 Aug - 06:13:28 10° W 06:19:50 31° NW 06:24:14 10° NNE daylight
08 Aug - 13:21:25 10° NNW 13:28:08 35° NE 13:39:31 10° E daylight
08 Aug - 15:40:18 10° WNW 15:50:23 72° SW 16:09:19 10° SE daylight
08 Aug - 18:04:16 10° W 18:16:55 29° SSW 18:34:44 10° SSE visible
08 Aug - 20:42:41 10° SSW 20:49:27 12° SSW 20:56:22 10° S visible
09 Aug - 01:45:21 10° SSW 01:56:20 22° SSE 02:03:44 10° ESE visible
09 Aug - 04:09:01 10° SW 04:20:19 69° SSE 04:26:29 10° ENE visible
09 Aug - 06:36:08 10° W 06:40:42 19° NW 06:44:16 10° N daylight
09 Aug - 13:41:49 10° NW 13:49:03 49° NE 14:02:17 10° ESE daylight
09 Aug - 16:01:33 10° WNW 16:11:55 55° SSW 16:30:36 10° SE daylight
09 Aug - 18:27:38 10° WSW 18:39:34 22° SSW 18:55:10 10° SSE visible
